Time,TemperatureF,DewpointF,PressureIn,WindDirection,WindDirectionDegrees,WindSpeedMPH,WindSpeedGustMPH,Humidity,HourlyPrecipIn,Conditions,Clouds,dailyrainin,SoftwareType,DateUTC
2013-07-23 00:02:00,75.8,71.3,29.76,NE,51,0.0,2.0,86,0.00,,SCT250,0.00,VWS V14.00,2013-07-23 04:02:00,
2013-07-23 00:17:00,75.6,71.1,29.75,NE,52,0.0,1.0,86,0.00,,SCT250,0.00,VWS V14.00,2013-07-23 04:17:00,
2013-07-23 00:32:00,75.4,71.3,29.75,NE,54,0.0,0.0,87,0.00,,SCT250,0.00,VWS V14.00,2013-07-23 04:32:00,
2013-07-23 00:47:00,75.1,71.0,29.74,NE,51,0.0,0.0,87,0.00,,SCT250,0.00,VWS V14.00,2013-07-23 04:47:00,
2013-07-23 01:02:00,74.9,71.1,29.73,NE,51,0.0,1.0,88,0.00,,BKN250,0.00,VWS V14.00,2013-07-23 05:02:00,
2013-07-23 01:17:00,74.7,71.2,29.73,NE,51,0.0,2.0,89,0.00,,BKN250,0.00,VWS V14.00,2013-07-23 05:17:00,
2013-07-23 01:32:00,74.6,71.2,29.72,NE,51,0.0,0.0,89,0.00,,BKN250,0.00,VWS V14.00,2013-07-23 05:32:00,
2013-07-23 01:47:00,74.6,71.5,29.72,NE,49,0.0,1.0,90,0.00,,BKN250,0.00,VWS V14.00,2013-07-23 05:47:00,
2013-07-23 02:02:00,74.4,71.3,29.71,NE,49,0.0,0.0,90,0.00,,BKN250,0.00,VWS V14.00,2013-07-23 06:02:00,
2013-07-23 02:17:00,74.2,71.1,29.71,NE,51,0.0,1.0,90,0.00,,BKN250,0.00,VWS V14.00,2013-07-23 06:17:00,
2013-07-23 02:32:00,74.2,71.1,29.70,NE,51,0.0,0.0,90,0.00,,BKN250,0.00,VWS V14.00,2013-07-23 06:32:00,
2013-07-23 02:47:00,74.4,71.3,29.70,NE,49,0.0,0.0,90,0.00,,BKN250,0.00,VWS V14.00,2013-07-23 06:47:00,
2013-07-23 03:02:00,74.6,71.5,29.69,NE,51,0.0,1.0,90,0.00,,BKN250,0.00,VWS V14.00,2013-07-23 07:02:00,
2013-07-23 03:17:00,74.9,71.1,29.70,NE,48,0.0,2.0,88,0.00,,BKN250,0.00,VWS V14.00,2013-07-23 07:17:00,
2013-07-23 03:32:00,74.9,70.8,29.70,NE,48,0.0,2.0,87,0.00,,BKN250,0.00,VWS V14.00,2013-07-23 07:32:00,
2013-07-23 03:47:00,74.9,70.8,29.69,NE,44,0.0,5.0,87,0.00,,BKN250,0.00,VWS V14.00,2013-07-23 07:47:00,
2013-07-23 04:02:00,74.7,70.6,29.69,NE,44,0.0,2.0,87,0.00,,BKN250,0.00,VWS V14.00,2013-07-23 08:02:00,
2013-07-23 04:17:00,74.6,70.8,29.70,NE,44,1.0,1.0,88,0.00,,BKN250,0.00,VWS V14.00,2013-07-23 08:17:00,
2013-07-23 04:32:00,74.4,70.6,29.70,NE,44,0.0,1.0,88,0.00,,BKN250,0.00,VWS V14.00,2013-07-23 08:32:00,
2013-07-23 04:47:00,74.0,70.2,29.71,NE,45,0.0,1.0,88,0.00,,BKN250,0.00,VWS V14.00,2013-07-23 08:47:00,
2013-07-23 05:02:00,73.7,69.6,29.71,NE,44,0.0,0.0,87,0.00,,SCT250,0.00,VWS V14.00,2013-07-23 09:02:00,
2013-07-23 05:17:00,73.3,69.2,29.71,NE,44,0.0,0.0,87,0.00,,SCT250,0.00,VWS V14.00,2013-07-23 09:17:00,
2013-07-23 05:32:00,73.2,69.4,29.72,NE,44,0.0,0.0,88,0.00,,SCT250,0.00,VWS V14.00,2013-07-23 09:32:00,
2013-07-23 05:47:00,73.0,69.6,29.72,NE,44,0.0,0.0,89,0.00,,SCT250,0.00,VWS V14.00,2013-07-23 09:47:00,
2013-07-23 06:02:00,72.8,69.4,29.73,NE,44,0.0,1.0,89,0.00,,SCT250,0.00,VWS V14.00,2013-07-23 10:02:00,
2013-07-23 06:17:00,72.7,69.3,29.73,NE,44,0.0,0.0,89,0.00,,SCT250,0.00,VWS V14.00,2013-07-23 10:17:00,
2013-07-23 06:32:00,72.7,69.3,29.73,NE,44,0.0,0.0,89,0.00,,SCT250,0.00,VWS V14.00,2013-07-23 10:32:00,
2013-07-23 06:47:00,72.7,69.6,29.73,NE,44,0.0,0.0,90,0.00,,SCT250,0.00,VWS V14.00,2013-07-23 10:47:00,
2013-07-23 07:02:00,73.2,70.1,29.73,NE,45,0.0,1.0,90,0.00,,SCT250,0.00,VWS V14.00,2013-07-23 11:02:00,
2013-07-23 07:17:00,73.7,70.6,29.74,WSW,253,2.0,2.0,90,0.00,,SCT250,0.00,VWS V14.00,2013-07-23 11:17:00,
2013-07-23 07:32:00,74.6,71.2,29.74,WSW,257,0.0,2.0,89,0.00,,SCT250,0.00,VWS V14.00,2013-07-23 11:32:00,
2013-07-23 07:47:00,75.6,70.8,29.74,West,260,0.0,3.0,85,0.00,,SCT250,0.00,VWS V14.00,2013-07-23 11:47:00,
2013-07-23 08:02:00,76.0,70.8,29.75,West,261,0.0,2.0,84,0.00,,SCT250,0.00,VWS V14.00,2013-07-23 12:02:00,
2013-07-23 08:17:00,76.0,70.8,29.75,West,260,0.0,1.0,84,0.00,,SCT250,0.00,VWS V14.00,2013-07-23 12:17:00,
2013-07-23 08:32:00,76.8,70.5,29.74,West,260,0.0,0.0,81,0.00,,SCT250,0.00,VWS V14.00,2013-07-23 12:32:00,
2013-07-23 08:47:00,78.6,70.8,29.74,West,261,0.0,1.0,77,0.00,,SCT250,0.00,VWS V14.00,2013-07-23 12:47:00,
2013-07-23 09:02:00,79.0,70.8,29.74,West,271,0.0,2.0,76,0.00,,BKN250,0.00,VWS V14.00,2013-07-23 13:02:00,
2013-07-23 09:17:00,79.0,70.8,29.74,West,272,1.0,3.0,76,0.00,,BKN250,0.00,VWS V14.00,2013-07-23 13:17:00,
2013-07-23 09:32:00,79.9,71.3,29.73,West,271,0.0,1.0,75,0.00,,BKN250,0.00,VWS V14.00,2013-07-23 13:32:00,
2013-07-23 09:47:00,81.6,71.3,29.73,West,271,0.0,1.0,71,0.00,,BKN250,0.00,VWS V14.00,2013-07-23 13:47:00,
2013-07-23 10:02:00,83.0,72.2,29.73,West,280,0.0,5.0,70,0.00,,BKN250,0.00,VWS V14.00,2013-07-23 14:02:00,
2013-07-23 10:17:00,84.1,71.1,29.73,West,272,2.0,6.0,65,0.00,,BKN250,0.00,VWS V14.00,2013-07-23 14:17:00,
2013-07-23 10:32:00,84.7,70.2,29.72,West,263,2.0,7.0,62,0.00,,BKN250,0.00,VWS V14.00,2013-07-23 14:32:00,
2013-07-23 10:47:00,85.7,70.7,29.72,West,268,0.0,2.0,61,0.00,,BKN250,0.00,VWS V14.00,2013-07-23 14:47:00,
2013-07-23 11:02:00,84.9,70.0,29.73,West,267,1.0,7.0,61,0.00,,BKN250,0.00,VWS V14.00,2013-07-23 15:02:00,
2013-07-23 11:17:00,85.3,71.8,29.73,West,278,0.0,5.0,64,0.00,,BKN250,0.00,VWS V14.00,2013-07-23 15:17:00,
2013-07-23 11:32:00,85.5,70.5,29.73,West,265,2.0,3.0,61,0.00,,BKN250,0.00,VWS V14.00,2013-07-23 15:32:00,
2013-07-23 11:47:00,84.1,69.7,29.72,West,280,0.0,5.0,62,0.00,,BKN250,0.00,VWS V14.00,2013-07-23 15:47:00,
2013-07-23 12:02:00,85.7,71.2,29.72,NW,320,0.0,8.0,62,0.00,,BKN250,0.00,VWS V14.00,2013-07-23 16:02:00,
2013-07-23 12:17:00,86.5,70.0,29.72,WNW,298,0.0,7.0,58,0.00,,BKN250,0.00,VWS V14.00,2013-07-23 16:17:00,
2013-07-23 12:32:00,87.6,68.9,29.72,SW,236,0.0,5.0,54,0.00,,BKN250,0.00,VWS V14.00,2013-07-23 16:32:00,
2013-07-23 12:47:00,87.0,70.9,29.73,West,271,1.0,6.0,59,0.00,,BKN250,0.00,VWS V14.00,2013-07-23 16:47:00,
2013-07-23 13:02:00,85.7,70.7,29.72,NW,312,0.0,5.0,61,0.00,,BKN250,0.00,VWS V14.00,2013-07-23 17:02:00,
2013-07-23 13:17:00,86.5,70.5,29.72,WSW,248,0.0,6.0,59,0.00,,BKN250,0.00,VWS V14.00,2013-07-23 17:17:00,
2013-07-23 13:32:00,86.5,69.5,29.72,WNW,284,0.0,5.0,57,0.00,,BKN250,0.00,VWS V14.00,2013-07-23 17:32:00,
2013-07-23 13:47:00,86.3,68.8,29.72,WNW,285,0.0,6.0,56,0.00,,BKN250,0.00,VWS V14.00,2013-07-23 17:47:00,
2013-07-23 14:02:00,85.9,69.9,29.72,WSW,258,0.0,4.0,59,0.00,,BKN250,0.00,VWS V14.00,2013-07-23 18:02:00,
2013-07-23 14:17:00,87.6,70.0,29.71,NW,322,0.0,7.0,56,0.00,,BKN250,0.00,VWS V14.00,2013-07-23 18:17:00,
2013-07-23 14:32:00,88.2,68.4,29.71,WSW,240,0.0,11.0,52,0.00,,BKN250,0.00,VWS V14.00,2013-07-23 18:32:00,
2013-07-23 14:47:00,88.2,69.5,29.70,NW,313,0.0,7.0,54,0.00,,BKN250,0.00,VWS V14.00,2013-07-23 18:47:00,
2013-07-23 15:02:00,88.6,69.8,29.69,West,265,1.0,5.0,54,0.00,,BKN250,0.00,VWS V14.00,2013-07-23 19:02:00,
2013-07-23 15:17:00,88.4,69.1,29.68,NNW,329,0.0,7.0,53,0.00,,BKN250,0.00,VWS V14.00,2013-07-23 19:17:00,
2013-07-23 15:32:00,88.2,69.5,29.68,NNW,328,0.0,5.0,54,0.00,,BKN250,0.00,VWS V14.00,2013-07-23 19:32:00,
2013-07-23 15:47:00,88.0,69.3,29.68,NW,312,3.0,5.0,54,0.00,,BKN250,0.00,VWS V14.00,2013-07-23 19:47:00,
2013-07-23 16:02:00,89.0,69.1,29.67,SW,230,0.0,6.0,52,0.00,,BKN250,0.00,VWS V14.00,2013-07-23 20:02:00,
2013-07-23 16:17:00,89.0,69.7,29.66,NW,315,1.0,5.0,53,0.00,,BKN250,0.00,VWS V14.00,2013-07-23 20:17:00,
2013-07-23 16:32:00,88.6,68.7,29.66,NW,308,0.0,6.0,52,0.00,,BKN250,0.00,VWS V14.00,2013-07-23 20:32:00,
2013-07-23 16:47:00,89.0,70.2,29.66,WNW,296,1.0,4.0,54,0.00,,BKN250,0.00,VWS V14.00,2013-07-23 20:47:00,
2013-07-23 17:02:00,89.9,67.6,29.66,WNW,282,0.0,6.0,48,0.00,,BKN250,0.00,VWS V14.00,2013-07-23 21:02:00,
2013-07-23 17:17:00,89.5,69.0,29.66,WSW,254,1.0,3.0,51,0.00,,BKN250,0.00,VWS V14.00,2013-07-23 21:17:00,
2013-07-23 17:32:00,89.3,69.4,29.66,WSW,257,0.0,3.0,52,0.00,,BKN250,0.00,VWS V14.00,2013-07-23 21:32:00,
2013-07-23 17:47:00,89.9,68.2,29.65,NW,309,0.0,5.0,49,0.00,,BKN250,0.00,VWS V14.00,2013-07-23 21:47:00,
2013-07-23 18:02:00,90.1,67.8,29.65,WSW,246,0.0,4.0,48,0.00,,SCT250,0.00,VWS V14.00,2013-07-23 22:02:00,
2013-07-23 18:17:00,89.7,67.4,29.65,NNW,330,0.0,5.0,48,0.00,,SCT250,0.00,VWS V14.00,2013-07-23 22:17:00,
2013-07-23 18:32:00,89.9,67.6,29.64,WNW,294,0.0,6.0,48,0.00,,SCT250,0.00,VWS V14.00,2013-07-23 22:32:00,
2013-07-23 18:47:00,89.3,67.1,29.64,West,264,0.0,2.0,48,0.00,,SCT250,0.00,VWS V14.00,2013-07-23 22:47:00,
2013-07-23 19:02:00,88.0,67.6,29.64,West,267,0.0,3.0,51,0.00,,CLR,0.00,VWS V14.00,2013-07-23 23:02:00,
2013-07-23 19:17:00,87.6,67.8,29.65,West,268,0.0,1.0,52,0.00,,CLR,0.00,VWS V14.00,2013-07-23 23:17:00,
2013-07-23 19:47:00,85.7,68.2,29.66,WNW,287,0.0,1.0,56,0.00,,CLR,0.00,VWS V14.00,2013-07-23 23:47:00,
2013-07-23 20:02:00,84.3,67.9,29.66,WNW,287,0.0,1.0,58,0.00,,FEW250,0.00,VWS V14.00,2013-07-24 00:02:00,
2013-07-23 20:32:00,83.0,68.7,29.66,WNW,287,0.0,0.0,62,0.00,,FEW250,0.00,VWS V14.00,2013-07-24 00:32:00,
2013-07-23 20:47:00,82.0,68.2,29.67,WNW,287,0.0,0.0,63,0.00,,FEW250,0.00,VWS V14.00,2013-07-24 00:47:00,
2013-07-23 21:02:00,81.2,68.3,29.67,WNW,287,0.0,0.0,65,0.00,,FEW250,0.00,VWS V14.00,2013-07-24 01:02:00,
2013-07-23 21:17:00,80.1,69.0,29.67,WNW,287,0.0,0.0,69,0.00,,FEW250,0.00,VWS V14.00,2013-07-24 01:17:00,
2013-07-23 21:32:00,79.2,69.4,29.68,WNW,287,0.0,0.0,72,0.00,,FEW250,0.00,VWS V14.00,2013-07-24 01:32:00,
2013-07-23 21:47:00,78.1,69.1,29.68,WNW,287,0.0,0.0,74,0.00,,FEW250,0.00,VWS V14.00,2013-07-24 01:47:00,
2013-07-23 22:02:00,77.6,69.1,29.69,WNW,287,0.0,0.0,75,0.00,,FEW250,0.00,VWS V14.00,2013-07-24 02:02:00,
2013-07-23 22:17:00,77.9,68.9,29.70,WNW,287,0.0,0.0,74,0.00,,FEW250,0.00,VWS V14.00,2013-07-24 02:17:00,
2013-07-23 22:32:00,77.4,69.2,29.69,WNW,287,0.0,0.0,76,0.00,,FEW250,0.00,VWS V14.00,2013-07-24 02:32:00,
2013-07-23 22:47:00,77.2,69.1,29.69,WNW,287,0.0,0.0,76,0.00,,FEW250,0.00,VWS V14.00,2013-07-24 02:47:00,
2013-07-23 23:02:00,77.0,68.5,29.69,WNW,287,0.0,0.0,75,0.00,,FEW250,0.00,VWS V14.00,2013-07-24 03:02:00,
2013-07-23 23:47:00,76.3,68.6,29.70,WNW,287,0.0,0.0,77,0.00,,FEW250,0.00,VWS V14.00,2013-07-24 03:47:00,